Flag for Austria Weather past 2 weeks in Güssing, Burgenland, Austria

Now
59 °F

Cool.


Feels Like: 59 °F
Forecast: 55 / 70 °F
Wind: 3 mph from Northwest

Location: Murska Sobota

Current Time: May 6, 2015 at 11:38:34 PM

Latest Report: May 6, 2015 at 10:00 PM


Visibility: N/A

Pressure: 30.00 "Hg

Humidity: 74%

Dew point: 50 °F

Location of GüssingLocation

Historic Weather in Güssing — Graph

°F

Güssing temperature yesterday

Maximum temperature yesterday: 80 °F (at 2:00 PM)
Minimum temperature yesterday: 52 °F (at 6:00 AM)
Average temperature yesterday: 68 °F

Past Weeks' High & Low Weather Summary

 TemperatureHumidityPressure
High82 °F (May 6, 4:00 PM)99% (May 4, 5:00 AM)30.21 "Hg (May 4, 5:00 AM)
Low36 °F (Apr 30, 6:00 AM)28% (Apr 22, 2:00 PM)29.58 "Hg (Apr 28, 5:00 AM)
Average60 °F66%29.91 "Hg
* Reported Apr 21 10:00 PM — May 6 10:00 PM, Güssing, Weather by CustomWeather, © 2015

Note: Actual official high and low records may vary slightly from our data, if they occured in-between our weather recording intervals... More about our weather records

Advertising

Güssing weather history for previous 24 hours

 ConditionsComfort  
Time TempWeatherWind HumidityBarometerVisibility
10:00 PM
Wed, May 6
59 °FCool.3 mph74%30.00 "HgN/A
9:00 PM62 °FCool.3 mph62%29.98 "HgN/A
8:00 PM62 °FOvercast.5 mph65%29.95 "Hg31 mi
7:00 PM64 °FMild.6 mph66%29.91 "HgN/A
6:00 PMN/A12 mphN/AN/AN/A
5:00 PM82 °FWarm.2 mph47%29.77 "HgN/A
4:00 PM82 °FWarm.2 mph48%29.76 "HgN/A
3:00 PM81 °FPassing clouds.3 mph47%29.77 "Hg6 mi
2:00 PM80 °FPassing clouds.2 mph49%29.80 "Hg6 mi
1:00 PM79 °FWarm.3 mph50%29.83 "HgN/A
12:00 PM77 °FWarm.2 mph51%29.84 "HgN/A
11:00 AM76 °FMild.2 mph56%29.87 "HgN/A
10:00 AM72 °FMild.2 mph61%29.86 "HgN/A
9:00 AM69 °FMild.1 mph66%29.88 "HgN/A
8:00 AM67 °FPartly sunny.2 mph69%29.87 "Hg6 mi
7:00 AM62 °FOvercast.2 mph79%29.87 "Hg6 mi
6:00 AM57 °FCool.1 mph87%29.84 "HgN/A
5:00 AM59 °FCool.1 mph82%29.83 "HgN/A
4:00 AM61 °FCool.1 mph75%29.81 "HgN/A
3:00 AM65 °FMild.1 mph66%29.80 "HgN/A
2:00 AM70 °FMild.3 mph55%29.79 "HgN/A
1:00 AM71 °FMild.5 mph54%29.78 "HgN/A
12:00 AM72 °FMild.7 mph51%29.78 "HgN/A
11:00 PM
Tue, May 5
72 °FMild.6 mph51%29.78 "HgN/A
Weather by CustomWeather, © 2015

See weather overviewHow to use our weather pages